Location: *
(18.5200°S, 46.4500°E)
Time: 06:33:08
(UTC+00:00)

Cosmos 2360 Rocket - Pass Details

Date: 19 July 2019
Orbit: 835 x 844 km, 71.0° (Epoch: 23 August)

Event Time Altitude Azimuth Distance (km) Brightness Sun altitude
Rises 15:16:42 0° 172° (S) 3,417 5.1 -10.1°
Reaches altitude 10° 15:20:08 10° 152° (SSE) 2,475 4.2 -10.9°
Maximum altitude 15:23:37 17° 113° (ESE) 2,043 3.5 -11.7°
Enters shadow 15:25:16 15° 93° (E) 2,143 3.7 -12.0°
